Location: Widewater Village at Stafford
(38.4893°N, 77.3783°W)
Time: 11:02:31
(UTC+00:00)

Tiangong - Pass Details

Date: 02 December 2022
Orbit: 383 x 386 km, 41.5° (Epoch: 31 January)

Event Time Altitude Azimuth Distance (km) Brightness Sun altitude
Rises 22:54:31 0° 257° (WSW) 2,250 3.8 -12.7°
Reaches altitude 10° 22:56:36 10° 259° (W) 1,400 2.2 -13.0°
Maximum altitude 22:59:45 74° 345° (NNW) 403 -2.1 -13.6°
Enters shadow 23:01:12 29° 65° (ENE) 739 -1.3 -13.9°
